TimeEDT,TemperatureF,Dew PointF,Humidity,Sea Level PressureIn,VisibilityMPH,Wind Direction,Wind SpeedMPH,Gust SpeedMPH,PrecipitationIn,Events,Conditions,WindDirDegrees,DateUTC
12:53 AM,43.0,30.9,62,30.23,10.0,Calm,Calm,-,N/A,,Clear,0,2013-03-10 05:53:00
1:53 AM,43.0,32.0,65,30.23,10.0,Calm,Calm,-,N/A,,Clear,0,2013-03-10 06:53:00
3:53 AM,43.0,32.0,65,30.22,10.0,East,4.6,-,N/A,,Clear,80,2013-03-10 07:53:00
4:53 AM,43.0,30.9,62,30.21,10.0,Calm,Calm,-,N/A,,Clear,0,2013-03-10 08:53:00
5:53 AM,41.0,34.0,76,30.22,10.0,Calm,Calm,-,N/A,,Clear,0,2013-03-10 09:53:00
6:53 AM,43.0,32.0,65,30.22,10.0,Calm,Calm,-,N/A,,Clear,0,2013-03-10 10:53:00
7:53 AM,41.0,33.8,76,30.25,10.0,Calm,Calm,-,N/A,,Clear,0,2013-03-10 11:53:00
8:53 AM,44.1,35.1,71,30.26,10.0,NE,3.5,-,N/A,,Clear,40,2013-03-10 12:53:00
9:53 AM,48.9,34.0,56,30.28,10.0,Calm,Calm,-,N/A,,Partly Cloudy,0,2013-03-10 13:53:00
10:53 AM,53.1,33.1,47,30.27,10.0,WSW,4.6,-,N/A,,Clear,250,2013-03-10 14:53:00
11:53 AM,57.0,34.0,42,30.26,10.0,Calm,Calm,-,N/A,,Clear,0,2013-03-10 15:53:00
12:53 PM,61.0,34.0,36,30.23,10.0,Variable,3.5,-,N/A,,Clear,0,2013-03-10 16:53:00
1:53 PM,63.0,34.0,34,30.21,10.0,ESE,5.8,-,N/A,,Clear,110,2013-03-10 17:53:00
2:53 PM,64.9,32.0,29,30.17,10.0,Variable,5.8,-,N/A,,Clear,0,2013-03-10 18:53:00
3:53 PM,66.0,34.0,30,30.17,10.0,Variable,5.8,-,N/A,,Clear,0,2013-03-10 19:53:00
4:53 PM,64.9,35.1,33,30.16,10.0,ESE,6.9,-,N/A,,Clear,120,2013-03-10 20:53:00
5:53 PM,64.9,33.1,31,30.14,10.0,SE,9.2,-,N/A,,Clear,130,2013-03-10 21:53:00
6:53 PM,63.0,35.1,35,30.15,10.0,ESE,3.5,-,N/A,,Clear,120,2013-03-10 22:53:00
7:53 PM,57.9,36.0,44,30.15,10.0,East,5.8,-,N/A,,Clear,100,2013-03-10 23:53:00
8:53 PM,54.0,37.0,53,30.16,10.0,East,6.9,-,N/A,,Clear,90,2013-03-11 00:53:00
9:53 PM,54.0,36.0,51,30.16,10.0,East,5.8,-,N/A,,Clear,100,2013-03-11 01:53:00
10:53 PM,52.0,36.0,54,30.16,10.0,ESE,9.2,-,N/A,,Clear,120,2013-03-11 02:53:00
11:53 PM,52.0,36.0,54,30.16,10.0,SE,6.9,-,N/A,,Clear,140,2013-03-11 03:53:00
12:53 AM,52.0,36.0,54,30.14,10.0,SSE,6.9,-,N/A,,Clear,150,2013-03-11 04:53:00